Location: Caltech
(34.1382°N, 118.1253°W)
Time: 13:08:42
(UTC-07:00)

Cosmos 1125 Rocket - Visible Passes

Search period start: 27 May 2016 00:00
Search period end: 06 June 2016 00:00
Orbit: 757 x 781 km, 74.0° (Epoch: 26 May)

Date Brightness Start Highest point End Pass type
(mag) Time Alt. Az. Time Alt. Az. Time Alt. Az.
27 May 5.2 04:41:26 10° SSE 04:46:01 31° E 04:50:38 10° NE visible
28 May 6.0 04:06:12 10° SE 04:09:35 17° E 04:12:59 10° NE visible
29 May 3.5 05:09:15 10° SSW 05:14:30 80° WNW 05:19:49 10° NNE visible
30 May 4.1 04:32:45 10° S 04:37:53 57° ESE 04:43:04 10° NNE visible
31 May 5.1 03:56:46 10° SSE 04:01:22 31° E 04:05:59 10° NE visible
01 Jun 5.8 03:21:31 10° SE 03:24:56 18° E 03:28:21 10° NE visible
01 Jun 4.0 05:01:33 10° SW 05:06:34 45° WNW 05:11:39 10° N visible
02 Jun 3.5 04:25:35 16° SSW 04:29:51 80° WNW 04:35:11 10° NNE visible
03 Jun 4.0 03:50:00 22° S 03:53:14 57° ESE 03:58:26 10° NNE visible
04 Jun 4.9 03:14:21 22° SE 03:16:43 32° E 03:21:21 10° NE visible
04 Jun 4.8 04:54:39 11° WSW 04:58:45 26° WNW 05:03:09 10° N visible
05 Jun 5.6 02:38:38 15° ESE 02:40:17 18° E 02:43:44 10° NE visible
05 Jun 4.0 04:18:57 23° SW 04:21:55 44° WNW 04:27:00 10° N visible
